Weather in Amsterdam

Netherlands     52°22′21″N   4°53′49″E
temp.,
°C
wind,
m/s
gust,
m/s
humid.,
%
clouds,
%
prec.,
mm/h
press.,
hPa
HPBL,
m
4 july, mon
mon423:00+14w22791 0.0 102039
02:00+13sw23844 0.0 101958
05:00+12ssw2588100 0.0 1019102
08:00+16sw357496 0.0 1019285
11:00+21w465276 0.1 10201765
14:00+22w56426 0.1 10191786
17:00+22w57440 0.0 10191642
20:00+19wnw34520 0.0 1019881
5 july, tue
tue523:00+14nw11800 0.0 102013
02:00+13wsw118560 0.0 102113
05:00+15sw1275100 0.0 102050
08:00+16w2369100 0.0 1021405
11:00+19wnw565113 0.1 10221615
14:00+19wnw564710 0.1 10231712
17:00+19wnw564813 0.0 10231554
20:00+16nw455729 0.0 10241250
6 july, wed
wed623:00+12nw22815 0.0 102539
02:00+11w1280100 0.0 102525
05:00+11wsw118431 0.0 102516
08:00+15wsw2469100 0.0 1025289
11:00+19wsw4652100 0.0 10241264
14:00+20w5756100 0.0 10241302
17:00+17w4983100 0.1 1023866
20:00+17w398892 0.3 1022814
7 july, thu
thu723:00+16w398646 0.0 1022532
02:00+16w3109095 0.0 1020624
05:00+16wnw51093100 0.4 1019767
08:00+15nw5119398 0.9 1020812
11:00+19nw6106763 0.6 10211353
14:00+20nnw795573 1.0 10231710
17:00+19nnw69480 0.0 10251511
20:00+17nnw59610 0.0 10271307
8 july, fri
fri823:00+13nnw39750 0.0 1028511
02:00+12nw27855 0.0 1029236
05:00+11nw25905 0.0 1029128
08:00+16nw387576 0.0 1030859
11:00+18nnw4670100 0.1 10301053
14:00+20nw4560100 0.1 10291277
17:00+21wnw4453100 0.0 10291024
20:00+19wnw356225 0.0 1028726